Papa, Hungary

6:42 AM CET on February 11, 2016 (GMT +0100)
Papa

Weather History for LHPA - February, 2013

Change the Weather History Date:

Tuesday, February 26, 2013

  Actual Average Record
Temperature  
Mean Temperature 38 °F -  
Max Temperature 41 °F - - ()
Min Temperature 35 °F - - ()
Degree Days  
Heating Degree Days 27    
Moisture  
Dew Point 37 °F    
Average Humidity 98    
Maximum Humidity 100    
Minimum Humidity 87    
Precipitation  
Precipitation 0.00 in - - ()
Sea Level Pressure  
Sea Level Pressure 30.13 in    
Wind  
Wind Speed 5 mph ()    
Max Wind Speed 13 mph    
Max Gust Speed -    
Visibility 1.5 miles    
Events Fog , Rain    
T = Trace of Precipitation, MM = Missing Value Source: Averaged Metar Reports

Daily Weather History Graph

Daily Weather History Graph

Search for Another Location

Airport or City:

Trip Planner

Search our weather history database for the weather conditions in past years. The results will help you decide how hot, cold, wet, or windy it might be!

Date:

Astronomy

Feb. 26, 2013 Rise Set
Actual Time 6:35 AM CET 5:30 PM CET
Civil Twilight 6:04 AM CET 6:01 PM CET
Nautical Twilight 5:29 AM CET 6:37 PM CET
Astronomical Twilight 4:54 AM CET 7:12 PM CET
Moon 6:36 PM CET (2/26) 6:23 AM CET (2/26)
Length of Visible Light 11h 56m
Length of Day
10h 55m
Full, 100% of the Moon is Illuminated
Feb 26
Full
Mar 4
Last Quarter
Mar 11
New
Mar 19
First Quarter
Mar 27
Full

Hourly Weather History & Observations

Time (CET) Temp. Windchill Dew Point Humidity Pressure Visibility Wind Dir Wind Speed Gust Speed Precip Events Conditions
12:15 AM 35.6 °F - 35.6 °F 100% 30.12 in 0.1 mi Calm Calm - N/A Fog , Rain Light Rain
12:31 AM 35.6 °F - 35.6 °F 100% 30.12 in 0.3 mi NW 2.2 mph - N/A Rain Heavy Rain
12:45 AM 35.6 °F - 35.6 °F 100% 30.12 in 0.4 mi NNW 2.2 mph - N/A Rain Heavy Rain
1:15 AM 35.6 °F 28.7 °F 35.6 °F 100% 30.09 in 0.4 mi NNW 8.9 mph - N/A Rain Heavy Rain
1:22 AM 35.6 °F 28.7 °F 35.6 °F 100% 30.09 in 0.5 mi NNW 8.9 mph - N/A Rain Heavy Rain
1:32 AM 35.6 °F 28.7 °F 35.6 °F 100% 30.09 in 0.6 mi NNW 8.9 mph - N/A   Overcast
1:45 AM 35.6 °F 30.0 °F 35.6 °F 100% 30.09 in 0.6 mi NNW 6.7 mph - N/A   Overcast
2:15 AM 35.6 °F 30.0 °F 35.6 °F 100% 30.09 in 0.6 mi North 6.7 mph - N/A   Overcast
2:27 AM 35.6 °F 31.8 °F 35.6 °F 100% 30.09 in 0.6 mi North 4.5 mph - N/A Rain Light Rain
2:45 AM 35.6 °F 31.8 °F 35.6 °F 100% 30.09 in 0.6 mi North 4.5 mph - N/A Rain Light Rain
3:05 AM 37.4 °F - 37.4 °F 100% 30.09 in 0.6 mi NNE 2.2 mph - N/A   Overcast
3:15 AM 37.4 °F - 37.4 °F 100% 30.09 in 0.6 mi North 2.2 mph - N/A   Overcast
3:45 AM 37.4 °F - 37.4 °F 100% 30.09 in 0.6 mi NNE 2.2 mph - N/A   Overcast
4:15 AM 37.4 °F - 37.4 °F 100% 30.09 in 0.6 mi Calm Calm - N/A   Overcast
4:45 AM 37.4 °F - 37.4 °F 100% 30.09 in 0.6 mi NNW 2.2 mph - N/A   Overcast
5:15 AM 37.4 °F 33.9 °F 37.4 °F 100% 30.09 in 0.6 mi NNW 4.5 mph - N/A   Overcast
5:45 AM - - - N/A% - 0.9 mi NNW 4.5 mph - N/A   Mostly Cloudy
6:15 AM 37.4 °F 32.2 °F 37.4 °F 100% 30.09 in 0.6 mi NNW 6.7 mph - N/A   Overcast
6:20 AM 37.4 °F 32.2 °F 37.4 °F 100% 30.09 in 0.5 mi NNW 6.7 mph - N/A Fog , Rain Light Rain
6:45 AM 37.4 °F 32.2 °F 37.4 °F 100% 30.09 in 0.5 mi NNW 6.7 mph - N/A Fog , Rain Light Rain
7:15 AM 37.4 °F 33.9 °F 37.4 °F 100% 30.12 in 0.5 mi NW 4.5 mph - N/A Fog , Rain Light Rain
7:45 AM 35.6 °F 30.0 °F 35.6 °F 100% 30.12 in 0.5 mi NNW 6.7 mph - N/A Fog , Rain Light Rain
8:15 AM 35.6 °F 30.0 °F 35.6 °F 100% 30.12 in 0.5 mi NNW 6.7 mph - N/A Fog , Rain Light Rain
8:45 AM - - - N/A% - 3.1 mi NNW 8.9 mph - N/A   Mostly Cloudy
9:15 AM 37.4 °F 32.2 °F 37.4 °F 100% 30.12 in 0.5 mi NNW 6.7 mph - N/A Fog , Rain Light Rain
9:42 AM 37.4 °F 32.2 °F 37.4 °F 100% 30.12 in 0.5 mi NW 6.7 mph - N/A Fog Fog
9:45 AM 37.4 °F 32.2 °F 37.4 °F 100% 30.15 in 0.5 mi NNW 6.7 mph - N/A Fog Fog
10:06 AM 37.4 °F 33.9 °F 37.4 °F 100% 30.15 in 0.6 mi NW 4.5 mph - N/A   Overcast
10:15 AM 37.4 °F 33.9 °F 37.4 °F 100% 30.15 in 0.6 mi NW 4.5 mph - N/A   Overcast
10:45 AM 39.2 °F 36.0 °F 39.2 °F 100% 30.15 in 0.6 mi NNW 4.5 mph - N/A   Overcast
11:15 AM 39.2 °F 36.0 °F 39.2 °F 100% 30.15 in 0.7 mi NNW 4.5 mph - N/A   Overcast
11:45 AM - - - N/A% - 3.1 mi NNW 8.9 mph - N/A   Mostly Cloudy
12:15 PM 39.2 °F 34.4 °F 39.2 °F 100% 30.15 in 0.7 mi NNW 6.7 mph - N/A   Overcast
12:25 PM 39.2 °F 34.4 °F 39.2 °F 100% 30.15 in 0.7 mi NNW 6.7 mph - N/A Rain Light Rain
12:45 PM 39.2 °F 34.4 °F 39.2 °F 100% 30.15 in 0.7 mi NNW 6.7 mph - N/A Rain Light Rain
1:11 PM 39.2 °F 33.1 °F 39.2 °F 100% 30.15 in 0.9 mi NNW 8.9 mph - N/A   Overcast
1:15 PM 39.2 °F 33.1 °F 39.2 °F 100% 30.15 in 0.9 mi NNW 8.9 mph - N/A   Overcast
1:45 PM 39.2 °F 33.1 °F 39.2 °F 100% 30.15 in 1.2 mi NNW 8.9 mph - N/A   Overcast
2:45 PM - - - N/A% - 3.1 mi NNW 8.9 mph - N/A   Mostly Cloudy
3:12 PM 41.0 °F 35.4 °F 39.2 °F 93% 30.15 in 1.9 mi NNW 8.9 mph - N/A   Overcast
3:15 PM 41.0 °F 36.5 °F 39.2 °F 93% 30.15 in 1.9 mi NNW 6.7 mph - N/A   Overcast
3:45 PM 41.0 °F 36.5 °F 39.2 °F 93% 30.15 in 2.5 mi NNW 6.7 mph - N/A   Overcast
4:15 PM 41.0 °F 38.1 °F 39.2 °F 93% 30.15 in 2.5 mi NW 4.5 mph - N/A   Overcast
4:45 PM 41.0 °F 38.1 °F 39.2 °F 93% 30.15 in 2.5 mi NNW 4.5 mph - N/A   Overcast
5:21 PM 39.2 °F 36.0 °F 39.2 °F 100% 30.15 in 2.5 mi NW 4.5 mph - N/A Rain Light Rain
5:45 PM - - - N/A% - 3.1 mi NNW 8.9 mph - N/A   Overcast
6:15 PM 39.2 °F 36.0 °F 37.4 °F 93% 30.15 in 2.5 mi NW 4.5 mph - N/A Rain Light Rain
6:36 PM 39.2 °F - 37.4 °F 93% 30.15 in 2.5 mi NW 2.2 mph - N/A   Overcast
6:45 PM 39.2 °F 36.0 °F 37.4 °F 93% 30.15 in 2.5 mi NW 4.5 mph - N/A   Overcast
7:08 PM - - - N/A% - 3.1 mi NNW 6.7 mph - N/A   Overcast
7:15 PM 39.2 °F 36.0 °F 37.4 °F 93% 30.15 in 2.5 mi WNW 4.5 mph - N/A   Overcast
7:45 PM 39.2 °F - 37.4 °F 93% 30.18 in 2.5 mi West 2.2 mph - N/A   Overcast
8:15 PM 39.2 °F 34.4 °F 37.4 °F 93% 30.18 in 2.5 mi NNW 6.7 mph - N/A   Overcast
8:31 PM 39.2 °F 31.3 °F 35.6 °F 87% 30.18 in 3.1 mi NNW 13.4 mph - N/A   Mostly Cloudy
8:45 PM - - - N/A% - 3.1 mi NW 6.7 mph - N/A   Overcast
9:15 PM 37.4 °F 29.9 °F 35.6 °F 93% 30.18 in 3.1 mi NNW 11.2 mph - N/A   Overcast
9:45 PM 37.4 °F 29.9 °F 35.6 °F 93% 30.18 in 3.7 mi NNW 11.2 mph - N/A   Overcast
10:15 PM 35.6 °F 26.8 °F 35.6 °F 100% 30.18 in 3.7 mi NNW 13.4 mph - N/A   Overcast
10:45 PM 35.6 °F 26.8 °F 33.8 °F 93% 30.18 in 3.7 mi NNW 13.4 mph - N/A   Overcast
11:15 PM 35.6 °F 26.8 °F 33.8 °F 93% 30.21 in 3.7 mi NNW 13.4 mph - N/A   Overcast
11:45 PM - - - N/A% - 3.7 mi North - - N/A   Overcast